CAPE
3046 2764 2632 2652 2163 1990 1894 1640 2474 2276 2716 2719 2835 2714 2930 3379 2459 2661 1917 2041 2082 1588
3119 3050 2602 2621 2691 2347 2966 2640 2806 3522 3110 3105 2582 2666 2544 3040 2296 1984 1674 1858 2177 1434
2933 3143 2937 2931 3126 3184 3069 3349 3459 3485 3338 3017 2939 2724 2625 2324 2222 1654 2061 1552 1717 1124
2507 2574 2926 2816 3153 3656 3292 2647 2500 2213 2086 1992 2118 2068 1819 1957 1682 1549 1434 1164 950 1166
2792 3040 3271 2642 2091 2002 1628 1256 1317 1442 1467 1504 1351 1331 1111 944 720 766 830 955 1043 988
2795 2181 1554 1133 1295 1432 1272 776 352 372 477 287 375 444 711 691 837 691 790 791 774 758
1746 1147 1556 1553 839 37 100 180 156 82 61 19 11 20 188 136 239 226 204 147 273 47
1668 1090 250 9 10 17 13 14 21 15 9 3 1 0 12 10 9 10 11 14 20 10
172 202 4 8 14 17 13 13 11 7 8 3 0 0 0 13 13 16 7 7 17 24
127 11 36 13 8 7 8 10 6 7 2 4 3 0 0 1 11 9 14 15 10 3
221 83 14 8 7 7 9 10 13 8 4 0 0 0 0 0 7 7 5 7 9 6
178 61 9 8 7 6 4 5 8 13 18 8 0 0 0 0 11 31 26 26 0 5
106 8 5 7 6 8 8 9 6 7 3 0 0 0 0 0 9 7 17 31 18 0
10 10 10 11 9 4 1 5 5 2 1 0 0 0 0 0 0 0 0 0 0 0
CIN
-5 0 0 -1 0 0 0 0 0 0 0 0 0 0 -2 0 -1 -3 0 0 0 0
-7 -6 -1 -1 0 0 0 -1 -1 0 0 0 0 0 0 0 -1 0 0 0 -1 0
-1 -3 0 0 0 -1 0 -1 -1 0 0 -5 0 0 -1 0 -7 0 -1 -2 -1 -2
0 0 0 0 -7 0 0 -12 -12 -15 -16 -11 0 0 -1 0 0 0 0 0 0 0
0 0 -17 -25 -50 -34 -40 -54 -40 -25 -17 -10 -9 -3 -1 0 0 0 0 0 0 0
-9 -46 -59 -60 -2 -3 -7 -58 -146 -110 -75 -113 -67 -38 -5 -1 -1 0 0 0 0 0
-60 -103 -14 -8 -51 -398 -394 -287 -275 -340 -235 -173 0 -33 -90 -96 -60 -60 -67 -83 -66 -154
-17 -58 -393 -57 0 -322 -244 -97 -124 0 0 0 0 0 -1 0 0 0 0 0 -61 0
-490 -427 0 0 0 0 0 0 0 0 0 0 0 0 0 -2 0 0 0 0 0 0
-537 -192 -574 -142 0 0 0 0 0 0 0 0 0 0 0 -1 0 0 0 0 0 0
-393 -490 -435 0 0 0 0 0 0 0 0 0 0 0 0 0 0 0 0 0 0 0
-395 -471 0 0 0 0 0 0 0 0 0 0 0 0 0 0 0 0 -2 0 0 0
-413 0 0 0 0 0 0 0 0 0 0 0 0 0 0 0 0 -1 0 0 -2 0
0 0 0 0 0 0 0 0 0 0 0 0 0 0 0 0 0 0 0 0 0 0
Wind_Speed
11 10 10 10 5 4 2 6 6 5 7 9 6 8 13 13 12 13 17 16 16 13
13 12 8 1 3 8 6 1 11 5 4 9 7 5 11 16 15 17 12 15 20 18
15 13 10 8 8 3 2 5 6 4 5 6 8 12 15 14 18 15 16 14 17 13
17 16 15 11 6 8 9 11 12 12 12 11 12 14 15 13 13 13 14 15 16 15
14 7 11 10 11 12 13 12 11 12 13 13 16 16 15 15 15 15 14 13 13 14
17 14 14 15 15 14 14 14 15 15 15 16 16 15 16 15 18 19 20 18 16 15
18 16 15 15 12 nan 11 13 13 nan nan nan nan nan 23 22 21 21 22 21 21 nan
18 15 14 nan nan nan nan nan nan nan nan nan nan nan nan nan nan nan nan nan nan nan
17 16 nan nan nan nan nan nan nan nan nan nan nan nan nan nan nan nan nan nan nan nan
18 nan nan nan nan nan nan nan nan nan nan nan nan nan nan nan nan nan nan nan nan nan
19 nan nan nan nan nan nan nan nan nan nan nan nan nan nan nan nan nan nan nan nan nan
21 nan nan nan nan nan nan nan nan nan nan nan nan nan nan nan nan nan nan nan nan nan
22 nan nan nan nan nan nan nan nan nan nan nan nan nan nan nan nan nan nan nan nan nan
nan nan nan nan nan nan nan nan nan nan nan nan nan nan nan nan nan nan nan nan nan nan
Wind_Direction
57 59 52 35 95 82 120 132 218 313 344 338 354 334 314 311 320 316 309 319 320 307
51 60 82 108 44 42 21 54 325 315 352 349 348 331 315 322 335 317 322 322 319 318
35 34 42 25 25 35 25 259 261 285 310 304 311 311 320 334 324 331 334 331 306 323
18 13 11 14 310 278 279 277 285 293 295 296 308 311 320 326 335 331 336 335 342 350
4 20 289 292 297 294 297 296 299 296 295 302 310 312 313 317 313 326 330 320 317 319
326 316 315 310 303 295 297 302 301 297 293 291 300 305 307 313 298 293 291 290 293 288
314 317 321 315 314 nan 299 294 287 nan nan nan nan nan 303 299 293 292 295 290 295 nan
315 311 306 nan nan nan nan nan nan nan nan nan nan nan nan nan nan nan nan nan nan nan
309 314 nan nan nan nan nan nan nan nan nan nan nan nan nan nan nan nan nan nan nan nan
317 nan nan nan nan nan nan nan nan nan nan nan nan nan nan nan nan nan nan nan nan nan
319 nan nan nan nan nan nan nan nan nan nan nan nan nan nan nan nan nan nan nan nan nan
319 nan nan nan nan nan nan nan nan nan nan nan nan nan nan nan nan nan nan nan nan nan
321 nan nan nan nan nan nan nan nan nan nan nan nan nan nan nan nan nan nan nan nan nan
nan nan nan nan nan nan nan nan nan nan nan nan nan nan nan nan nan nan nan nan nan nan